EW7356 Weather Reports


Display with metric or nautical units.
time (UTC)temp
F
wind
direction
speed
MPH
gust
MPH
rain 1hr
in
rain 24hr
in
rain mn
in
humidity
%
barometer
mb
20260509221030 42 159 2.0 9.0 0.02 0.47 0.47 95 1010.5
20260509220530 42 103 0.0 4.0 0.02 0.46 0.46 95 1010.5
20260509220039 42 129 1.0 6.0 0.02 0.46 0.46 95 1010.7
20260509215531 43 235 1.0 7.0 0.03 0.46 0.46 95 1010.5
20260509215031 43 101 2.0 7.0 0.03 0.46 0.46 95 1010.5
20260509214540 42 145 2.0 10.0 0.04 0.46 0.46 95 1010.7
20260509214027 43 143 3.0 10.0 0.04 0.46 0.46 95 1010.6
20260509213531 43 161 1.0 8.0 0.05 0.46 0.46 95 1010.7
20260509213041 43 169 2.0 8.0 0.06 0.46 0.46 95 1010.7
20260509212527 43 128 2.0 11.0 0.07 0.46 0.46 95 1010.7
20260509212031 43 173 3.0 11.0 0.06 0.45 0.45 95 1010.8
20260509211534 43 153 4.0 8.0 0.07 0.45 0.45 95 1010.8
20260509211030 43 126 2.0 7.0 0.08 0.45 0.45 95 1010.7
20260509210531 43 120 2.0 10.0 0.07 0.44 0.44 95 1010.6
20260509210041 43 123 4.0 10.0 0.08 0.44 0.44 95 1010.7
20260509205530 43 100 3.0 8.0 0.08 0.43 0.43 95 1010.8
20260509205027 43 125 3.0 7.0 0.08 0.43 0.43 95 1010.7
20260509204550 43 82 1.0 7.0 0.08 0.42 0.42 95 1010.7
20260509204028 43 0 2.0 7.0 0.09 0.42 0.42 95 1010.6
20260509203529 42 0 2.0 8.0 0.09 0.41 0.41 95 1010.6
20260509203040 42 126 2.0 8.0 0.08 0.40 0.40 95 1010.9
20260509202529 42 170 3.0 8.0 0.08 0.39 0.39 95 1010.9
20260509202027 42 106 2.0 11.0 0.09 0.39 0.39 95 1011.1
20260509201540 43 132 3.0 11.0 0.08 0.38 0.38 95 1010.9
20260509201032 42 114 2.0 7.0 0.07 0.37 0.37 95 1011.1
20260509200532 42 144 3.0 7.0 0.08 0.37 0.37 95 1011.1
20260509200049 42 134 2.0 6.0 0.07 0.36 0.36 95 1011.0
20260509195531 42 128 2.0 6.0 0.07 0.35 0.35 94 1011.1
20260509195029 42 130 1.0 5.0 0.08 0.35 0.35 94 1011.2
20260509194543 42 0 1.0 5.0 0.07 0.34 0.34 94 1011.2
20260509194031 42 169 1.0 5.0 0.07 0.33 0.33 94 1011.2
20260509193530 42 157 1.0 5.0 0.07 0.32 0.32 94 1011.3
20260509193041 42 0 0.0 4.0 0.08 0.32 0.32 94 1011.4
20260509192529 42 163 0.0 4.0 0.07 0.31 0.31 94 1011.4
20260509192032 42 127 1.0 5.0 0.07 0.30 0.30 94 1011.5
20260509191540 42 9 1.0 5.0 0.08 0.30 0.30 94 1011.5
20260509191030 42 228 1.0 9.0 0.09 0.30 0.30 94 1011.6
20260509190529 42 139 0.0 9.0 0.09 0.29 0.29 94 1011.5
20260509190040 42 148 2.0 9.0 0.10 0.29 0.29 94 1011.5
20260509185529 42 119 1.0 9.0 0.10 0.28 0.28 94 1011.5
20260509185029 42 89 3.0 9.0 0.10 0.27 0.27 94 1011.7
20260509184548 42 171 1.0 7.0 0.11 0.27 0.27 94 1011.7
20260509184029 42 113 2.0 8.0 0.11 0.26 0.26 94 1011.7
20260509183529 42 133 1.0 8.0 0.10 0.25 0.25 94 1011.7
20260509183043 42 113 2.0 8.0 0.10 0.24 0.24 94 1011.8
20260509182530 43 143 1.0 6.0 0.10 0.23 0.23 94 1011.8
20260509182029 43 144 1.0 6.0 0.10 0.23 0.23 94 1011.8
20260509181548 43 113 1.0 8.0 0.10 0.22 0.22 94 1011.9
20260509181030 43 129 2.0 9.0 0.10 0.21 0.21 94 1011.8
20260509180530 43 89 3.0 9.0 0.09 0.20 0.20 94 1011.9
20260509180039 43 119 1.0 6.0 0.09 0.19 0.19 94 1011.9
20260509175529 43 0 0.0 4.0 0.08 0.18 0.18 94 1012.0
20260509175029 43 0 0.0 4.0 0.07 0.17 0.17 94 1012.0
20260509174541 43 182 1.0 4.0 0.07 0.16 0.16 94 1012.0
20260509174029 43 0 1.0 6.0 0.06 0.15 0.15 94 1011.9
20260509173529 43 175 0.0 6.0 0.07 0.15 0.15 94 1012.0
20260509173037 43 145 3.0 6.0 0.06 0.14 0.14 93 1012.1
20260509172529 43 146 0.0 3.0 0.05 0.13 0.13 93 1012.1
20260509172030 43 111 0.0 3.0 0.06 0.13 0.13 93 1012.1
20260509171543 43 0 0.0 3.0 0.05 0.12 0.12 93 1012.1
20260509171029 43 87 1.0 3.0 0.04 0.11 0.11 93 1012.1
20260509170530 43 0 0.0 4.0 0.05 0.11 0.11 93 1012.1
20260509170042 43 130 1.0 4.0 0.04 0.10 0.10 93 1012.1
20260509165532 43 289 1.0 2.0 0.04 0.10 0.10 93 1012.1
20260509165029 43 0 0.0 8.0 0.05 0.10 0.10 93 1012.1
20260509164539 43 0 0.0 8.0 0.04 0.09 0.09 93 1012.3
20260509164028 43 127 2.0 8.0 0.05 0.09 0.09 93 1012.2
20260509163534 43 0 1.0 5.0 0.04 0.08 0.08 93 1012.3
20260509163039 43 182 1.0 6.0 0.04 0.08 0.08 93 1012.2
20260509162529 43 150 2.0 6.0 0.05 0.08 0.08 92 1012.3
20260509162028 43 144 3.0 6.0 0.04 0.07 0.07 92 1012.3
20260509161536 43 0 1.0 6.0 0.05 0.07 0.07 93 1012.5
20260509161029 43 170 1.0 5.0 0.05 0.07 0.07 93 1012.5
20260509160528 43 142 1.0 5.0 0.04 0.06 0.06 92 1012.5
20260509160037 43 148 1.0 9.0 0.04 0.06 0.06 92 1012.6
20260509155530 43 171 4.0 9.0 0.03 0.05 0.05 91 1012.6
20260509155029 43 141 2.0 7.0 0.04 0.05 0.05 91 1012.7
20260509154541 43 151 1.0 5.0 0.04 0.05 0.05 91 1012.7
20260509154029 43 150 2.0 5.0 0.03 0.04 0.04 91 1012.8
20260509153531 43 157 1.0 6.0 0.03 0.04 0.04 90 1012.8
20260509153046 43 134 1.0 6.0 0.04 0.04 0.04 89 1013.0
20260509152529 43 0 1.0 9.0 0.03 0.03 0.03 89 1013.1
20260509152036 43 132 3.0 9.0 0.03 0.03 0.03 88 1013.0
20260509151539 43 150 0.0 6.0 0.02 0.02 0.02 88 1012.9
20260509151029 43 148 2.0 6.0 0.02 0.02 0.02 88 1012.9
20260509150527 43 151 1.0 6.0 0.02 0.02 0.02 89 1012.9
20260509150042 43 164 2.0 6.0 0.02 0.02 0.02 87 1012.8
20260509145529 43 147 2.0 8.0 0.02 0.02 0.02 86 1012.9
20260509145029 44 134 2.0 8.0 0.01 0.01 0.01 86 1012.8
20260509144549 44 156 2.0 8.0 0.01 0.01 0.01 86 1012.8
20260509144029 44 169 3.0 8.0 0.01 0.01 0.01 84 1012.7
20260509143528 44 144 3.0 7.0 0.01 0.01 0.01 83 1012.6
20260509143051 45 157 2.0 7.0 0.00 0.00 0.00 82 1012.7
20260509142531 45 148 3.0 7.0 0.00 0.00 0.00 78 1012.7
20260509142032 45 163 2.0 7.0 0.00 0.00 0.00 77 1012.7
20260509141540 46 167 1.0 9.0 0.00 0.00 0.00 75 1012.7
20260509141031 46 186 4.0 9.0 0.00 0.00 0.00 72 1012.6
20260509140532 47 163 3.0 7.0 0.00 0.00 0.00 69 1012.7
20260509140039 47 165 2.0 7.0 0.00 0.00 0.00 65 1012.7
20260509135529 48 155 3.0 7.0 0.00 0.00 0.00 61 1012.7
20260509135035 48 179 2.0 7.0 0.00 0.00 0.00 57 1012.6
20260509134557 48 173 2.0 7.0 0.00 0.00 0.00 56 1012.5
20260509134031 48 138 2.0 8.0 0.00 0.00 0.00 56 1012.6
20260509133531 48 134 2.0 8.0 0.00 0.00 0.00 55 1012.4
20260509133044 48 165 3.0 8.0 0.00 0.00 0.00 58 1012.4
20260509132530 48 147 2.0 7.0 0.00 0.00 0.00 57 1012.6
20260509132030 48 173 3.0 7.0 0.00 0.00 0.00 55 1012.4
20260509131540 48 180 3.0 7.0 0.00 0.00 0.00 55 1012.5
20260509131031 48 161 3.0 7.0 0.00 0.00 0.00 56 1012.5
20260509130535 48 180 3.0 8.0 0.00 0.00 0.00 59 1012.4
20260509130052 48 130 2.0 8.0 0.00 0.00 0.00 58 1012.4
20260509125531 48 144 0.0 4.0 0.00 0.00 0.00 63 1012.4
20260509125031 47 146 2.0 6.0 0.00 0.00 0.00 61 1012.5
20260509124538 47 157 2.0 8.0 0.00 0.00 0.00 60 1012.7
20260509124029 47 59 3.0 8.0 0.00 0.00 0.00 61 1012.6
20260509123529 46 129 2.0 6.0 0.00 0.00 0.00 65 1012.7
20260509123048 46 107 0.0 5.0 0.00 0.00 0.00 68 1012.7
20260509122530 45 145 0.0 5.0 0.00 0.00 0.00 69 1012.8
20260509122029 45 150 1.0 5.0 0.00 0.00 0.00 69 1012.7
20260509121601 44 0 0.0 3.0 0.00 0.00 0.00 69 1012.8
20260509121030 44 0 0.0 3.0 0.00 0.00 0.00 73 1012.9
20260509120534 43 71 0.0 3.0 0.00 0.00 0.00 73 1012.7
20260509120043 42 65 0.0 2.0 0.00 0.00 0.00 75 1012.8
20260509115531 41 0 0.0 3.0 0.00 0.00 0.00 77 1012.7
20260509115029 41 0 0.0 3.0 0.00 0.00 0.00 79 1012.8
20260509114541 40 39 1.0 3.0 0.00 0.00 0.00 80 1012.9
20260509114030 39 0 0.0 2.0 0.00 0.00 0.00 80 1013.0
20260509113530 39 0 0.0 2.0 0.00 0.00 0.00 81 1012.9
20260509113041 38 0 0.0 3.0 0.00 0.00 0.00 81 1013.1
20260509112529 38 177 1.0 3.0 0.00 0.00 0.00 83 1013.0
20260509112032 37 186 0.0 1.0 0.00 0.00 0.00 87 1013.0
20260509111556 36 0 0.0 0.0 0.00 0.00 0.00 87 1012.9
20260509111031 36 0 0.0 0.0 0.00 0.00 0.00 88 1012.9
20260509110530 36 0 0.0 0.0 0.00 0.00 0.00 90 1013.0
20260509110035 35 0 0.0 0.0 0.00 0.00 0.00 90 1013.0
20260509105530 35 0 0.0 0.0 0.00 0.00 0.00 90 1012.9
20260509105031 35 0 0.0 0.0 0.00 0.00 0.00 90 1013.0
20260509104544 34 0 0.0 0.0 0.00 0.00 0.00 90 1012.9
20260509104031 34 0 0.0 0.0 0.00 0.00 0.00 90 1012.9
20260509103527 34 0 0.0 0.0 0.00 0.00 0.00 90 1012.9
20260509103048 34 0 0.0 0.0 0.00 0.00 0.00 91 1012.9
20260509102532 33 0 0.0 0.0 0.00 0.00 0.00 91 1012.8
20260509102031 33 0 0.0 0.0 0.00 0.00 0.00 90 1012.8
20260509101611 33 0 0.0 0.0 0.00 0.00 0.00 89 1012.8
20260509101033 33 0 0.0 0.0 0.00 0.00 0.00 90 1012.6
20260509100535 33 0 0.0 0.0 0.00 0.00 0.00 90 1012.5
20260509100043 33 0 0.0 0.0 0.00 0.00 0.00 90 1012.5
20260509095531 33 0 0.0 0.0 0.00 0.00 0.00 91 1012.4
20260509095034 32 0 0.0 0.0 0.00 0.00 0.00 92 1012.3
20260509094544 32 0 0.0 0.0 0.00 0.00 0.00 92 1012.4
20260509094031 32 0 0.0 0.0 0.00 0.00 0.00 93 1012.4
20260509093532 31 0 0.0 0.0 0.00 0.00 0.00 92 1012.2
20260509093041 31 0 0.0 0.0 0.00 0.00 0.00 90 1012.2
20260509092530 31 0 0.0 0.0 0.00 0.00 0.00 89 1012.1
20260509092032 31 0 0.0 0.0 0.00 0.00 0.00 89 1011.9
20260509091544 31 0 0.0 3.0 0.00 0.00 0.00 90 1011.9
20260509091031 32 0 0.0 3.0 0.00 0.00 0.00 90 1011.9
20260509090532 31 44 1.0 3.0 0.00 0.00 0.00 90 1011.8
20260509090042 31 0 0.0 0.0 0.00 0.00 0.00 89 1011.8
20260509085530 31 0 0.0 0.0 0.00 0.00 0.00 88 1011.8
20260509085030 32 0 0.0 0.0 0.00 0.00 0.00 88 1011.8
20260509084540 32 0 0.0 0.0 0.00 0.00 0.00 88 1011.7
20260509084035 32 0 0.0 0.0 0.00 0.00 0.00 89 1011.7
20260509083530 32 0 0.0 0.0 0.00 0.00 0.00 89 1011.6
20260509083040 32 0 0.0 0.0 0.00 0.00 0.00 90 1011.7
20260509082530 32 0 0.0 0.0 0.00 0.00 0.00 90 1011.6
20260509082031 32 0 0.0 0.0 0.00 0.00 0.00 88 1011.6
20260509081544 32 0 0.0 0.0 0.00 0.00 0.00 87 1011.6
20260509081033 32 0 0.0 2.0 0.00 0.00 0.00 87 1011.6
20260509080530 32 0 0.0 2.0 0.00 0.00 0.00 88 1011.6
20260509080038 32 44 0.0 2.0 0.00 0.00 0.00 87 1011.5
20260509075530 33 0 0.0 1.0 0.00 0.00 0.00 86 1011.7
20260509075027 33 0 0.0 4.0 0.00 0.00 0.00 86 1011.6
20260509074545 33 0 2.0 4.0 0.00 0.00 0.00 86 1011.7
20260509074030 34 40 2.0 4.0 0.00 0.00 0.00 86 1011.7
20260509073530 34 340 1.0 3.0 0.00 0.00 0.00 86 1011.7
20260509073038 34 0 0.0 0.0 0.00 0.00 0.00 85 1011.9
20260509072527 34 0 0.0 0.0 0.00 0.00 0.00 83 1011.9
20260509072029 35 0 0.0 1.0 0.00 0.00 0.00 82 1011.9
20260509071550 35 0 0.0 1.0 0.00 0.00 0.00 82 1011.8
20260509071029 36 0 0.0 1.0 0.00 0.00 0.00 81 1011.8
20260509070529 36 0 0.0 2.0 0.00 0.00 0.00 81 1011.8
20260509070042 36 0 0.0 2.0 0.00 0.00 0.00 82 1011.8
20260509065529 36 290 0.0 3.0 0.00 0.00 0.00 82 1011.8
20260509065031 36 0 0.0 3.0 0.00 0.00 0.00 80 1011.9
20260509064546 37 277 1.0 3.0 0.00 0.00 0.00 81 1011.9
20260509064034 37 321 0.0 3.0 0.00 0.00 0.00 79 1011.9
20260509063529 37 319 1.0 3.0 0.00 0.00 0.00 81 1011.9
20260509063043 37 318 1.0 3.0 0.00 0.00 0.00 80 1012.0
20260509062531 37 315 1.0 3.0 0.00 0.00 0.00 80 1011.8
20260509062031 37 296 0.0 3.0 0.00 0.00 0.00 80 1011.9
20260509061534 37 271 1.0 2.0 0.00 0.00 0.00 80 1012.0
20260509061035 37 291 1.0 2.0 0.00 0.00 0.00 80 1012.1
20260509060530 37 289 0.0 2.0 0.00 0.00 0.00 80 1012.0
20260509060039 37 0 0.0 2.0 0.00 0.00 0.00 80 1012.0
20260509055527 37 0 0.0 2.0 0.00 0.00 0.00 80 1011.9
20260509055030 37 0 0.0 2.0 0.00 0.00 0.00 80 1011.9
20260509054548 38 0 0.0 2.0 0.00 0.00 0.00 79 1012.0
20260509054034 38 0 1.0 2.0 0.00 0.00 0.00 79 1011.9
20260509053531 38 293 0.0 2.0 0.00 0.00 0.00 77 1011.8
20260509053043 38 0 0.0 2.0 0.00 0.00 0.00 77 1011.9
20260509052531 38 293 1.0 4.0 0.00 0.00 0.00 77 1011.8
20260509052029 38 0 0.0 4.0 0.00 0.00 0.00 76 1011.8
20260509051541 38 282 1.0 2.0 0.00 0.00 0.00 76 1011.8
20260509051029 38 0 0.0 3.0 0.00 0.00 0.00 76 1011.7
20260509050529 38 0 0.0 3.0 0.00 0.00 0.00 75 1011.8
20260509050040 38 0 0.0 2.0 0.00 0.00 0.00 75 1011.7
20260509045532 39 0 0.0 2.0 0.00 0.00 0.00 75 1011.8
20260509045029 39 0 0.0 0.0 0.00 0.00 0.00 74 1011.6
20260509044536 39 0 0.0 0.0 0.00 0.00 0.00 74 1011.7
20260509044028 39 0 0.0 0.0 0.00 0.00 0.00 73 1011.6
20260509043526 39 0 0.0 0.0 0.00 0.00 0.00 73 1011.6
20260509043040 39 0 0.0 1.0 0.00 0.00 0.00 73 1011.6
20260509042531 39 0 0.0 2.0 0.00 0.00 0.00 73 1011.7
20260509042033 39 281 0.0 2.0 0.00 0.00 0.00 73 1011.6
20260509041607 39 281 0.0 2.0 0.00 0.00 0.00 73 1011.7
20260509041031 39 280 0.0 1.0 0.00 0.00 0.00 73 1011.7
20260509040531 39 0 0.0 0.0 0.00 0.00 0.00 73 1011.7
20260509040044 40 0 0.0 3.0 0.00 0.00 0.00 73 1011.7
20260509035529 40 0 0.0 3.0 0.00 0.00 0.00 72 1011.6
20260509035029 40 280 0.0 2.0 0.00 0.00 0.00 73 1011.7
20260509034539 40 0 0.0 3.0 0.00 0.00 0.00 73 1011.5
20260509034033 40 0 0.0 3.0 0.00 0.00 0.00 73 1011.5
20260509033533 40 276 0.0 3.0 0.00 0.00 0.00 72 1011.5
20260509033037 40 0 0.0 3.0 0.00 0.00 0.00 72 1011.4
20260509032527 40 0 0.0 3.0 0.00 0.00 0.00 72 1011.4
20260509032031 40 275 1.0 3.0 0.00 0.00 0.00 72 1011.3
20260509031544 40 257 1.0 3.0 0.00 0.00 0.00 72 1011.2
20260509031030 40 275 1.0 3.0 0.00 0.00 0.00 72 1011.2
20260509030529 40 270 0.0 3.0 0.00 0.00 0.00 72 1011.2
20260509030038 41 281 1.0 3.0 0.00 0.00 0.00 72 1011.2
20260509025529 41 277 1.0 3.0 0.00 0.00 0.00 71 1011.2
20260509025030 41 272 1.0 3.0 0.00 0.00 0.00 71 1011.1
20260509024539 41 275 0.0 2.0 0.00 0.00 0.00 71 1011.1
20260509024029 41 271 1.0 2.0 0.00 0.00 0.00 71 1011.1
20260509023529 41 0 0.0 2.0 0.00 0.00 0.00 70 1011.2
20260509023043 42 271 0.0 3.0 0.00 0.00 0.00 70 1011.0
20260509022529 42 269 0.0 3.0 0.00 0.00 0.00 69 1011.0
20260509022029 42 0 0.0 3.0 0.00 0.00 0.00 68 1011.0
20260509021543 42 0 0.0 2.0 0.00 0.00 0.00 68 1011.0
20260509021032 42 281 0.0 2.0 0.00 0.00 0.00 67 1010.9
20260509020528 43 0 0.0 3.0 0.00 0.00 0.00 67 1010.9
20260509020050 43 284 1.0 3.0 0.00 0.00 0.00 67 1010.8
20260509015527 43 0 1.0 3.0 0.00 0.00 0.00 66 1010.9
20260509015030 43 270 1.0 3.0 0.00 0.00 0.00 66 1010.8
20260509014541 43 272 0.0 4.0 0.00 0.00 0.00 65 1010.8
20260509014029 43 257 1.0 4.0 0.00 0.00 0.00 65 1010.7
20260509013529 43 257 2.0 3.0 0.00 0.00 0.00 65 1010.7
20260509013054 43 229 0.0 2.0 0.00 0.00 0.00 66 1010.7
20260509012532 44 0 0.0 2.0 0.00 0.00 0.00 65 1010.5
20260509012029 44 0 0.0 3.0 0.00 0.00 0.00 64 1010.4
20260509011538 44 0 0.0 3.0 0.00 0.00 0.00 64 1010.3
20260509011029 44 0 0.0 2.0 0.00 0.00 0.00 64 1010.1
20260509010532 45 0 0.0 3.0 0.00 0.00 0.00 64 1010.1
20260509010043 45 0 0.0 3.0 0.00 0.00 0.00 63 1009.9
20260509005529 45 257 0.0 3.0 0.00 0.00 0.00 62 1009.8
20260509005026 45 0 1.0 4.0 0.00 0.00 0.00 62 1009.7
20260509004542 45 247 1.0 5.0 0.00 0.00 0.00 61 1009.6
20260509004034 46 224 2.0 5.0 0.00 0.00 0.00 61 1009.4
20260509003531 46 0 2.0 9.0 0.00 0.00 0.00 61 1009.4
20260509003039 46 213 1.0 9.0 0.00 0.00 0.00 60 1009.3
20260509002530 46 281 4.0 8.0 0.00 0.00 0.00 59 1009.3
20260509002030 46 273 3.0 9.0 0.00 0.00 0.00 60 1009.2
20260509001539 46 247 3.0 9.0 0.00 0.00 0.00 59 1009.2
20260509001030 47 257 4.0 9.0 0.00 0.00 0.00 59 1009.2
20260509000530 47 300 3.0 9.0 0.00 0.00 0.00 59 1009.1
20260509000038 47 279 3.0 9.0 0.00 0.00 0.00 59 1009.0
20260508235530 47 254 3.0 10.0 0.00 0.00 0.00 59 1009.0
20260508235030 47 250 3.0 10.0 0.00 0.00 0.00 59 1008.9
20260508234541 47 250 3.0 9.0 0.00 0.00 0.00 58 1008.8
20260508234030 47 254 3.0 10.0 0.00 0.00 0.00 57 1008.8
20260508233527 47 286 6.0 12.0 0.00 0.00 0.00 57 1008.7
20260508233040 47 215 5.0 12.0 0.00 0.00 0.00 56 1008.7
20260508232530 48 257 5.0 17.0 0.00 0.00 0.00 55 1008.7
20260508232030 48 227 5.0 17.0 0.00 0.00 0.00 54 1008.6
20260508231539 48 282 4.0 10.0 0.00 0.00 0.00 53 1008.5
20260508231033 48 191 5.0 12.0 0.00 0.00 0.00 52 1008.4
20260508230530 49 186 5.0 12.0 0.00 0.00 0.00 51 1008.4
20260508230045 49 276 3.0 8.0 0.00 0.00 0.00 48 1008.4
20260508225530 49 257 2.0 7.0 0.00 0.00 0.00 43 1008.3
20260508225030 49 248 1.0 4.0 0.00 0.00 0.00 43 1008.3
20260508224538 49 269 1.0 4.0 0.00 0.00 0.00 43 1008.2
20260508224030 50 271 0.0 4.0 0.00 0.00 0.00 44 1008.2
20260508223532 50 318 1.0 6.0 0.00 0.00 0.00 42 1008.1
20260508223043 50 340 1.0 8.0 0.00 0.00 0.00 40 1008.1
20260508222530 50 342 3.0 8.0 0.00 0.00 0.00 40 1008.1
20260508222026 50 347 3.0 7.0 0.00 0.00 0.00 41 1008.1
20260508221538 50 290 2.0 7.0 0.00 0.00 0.00 42 1008.1